QTR847 HAAB-FSIA

Flight info

Callsign QTR847
Flight time N/A
Altitude 37000
Route IMKIT3A IMKIT Q555 MAV UM313 EGLOM/N0489F390 UM313 MOGUD DCT ROUTY ROUTY1D
Aircraft A35K/H-SDE2E3GHIJ3J4J5LM1ORWXY/LB1D1

Departure

Time N/A
Airport Addis Ababa Bole International Airport (HAAB)

Arrival

Time 2026-04-30 20:59
Airport Seychelles International Airport (FSIA)
Time Latitude Longitude Altitude Speed Heading
2026-04-30 17:39 6.21623 39.21430 37099 ft 494 kts 162°
2026-04-30 17:42 5.87627 39.31877 37074 ft 497 kts 162°
2026-04-30 17:43 5.71072 39.36989 37072 ft 500 kts 160°
2026-04-30 17:44 5.63347 39.41943 37075 ft 496 kts 133°
2026-04-30 17:44 5.57271 39.50270 37068 ft 496 kts 123°
2026-04-30 17:47 5.39611 39.75958 37057 ft 498 kts 123°
2026-04-30 17:48 5.25801 39.95978 37049 ft 498 kts 123°
2026-04-30 17:50 5.10081 40.18758 37031 ft 498 kts 123°
2026-04-30 17:52 4.98253 40.35882 37030 ft 497 kts 124°
2026-04-30 17:54 4.80591 40.61433 37024 ft 495 kts 124°
2026-04-30 17:56 4.64943 40.84067 37015 ft 493 kts 124°
2026-04-30 17:58 4.53232 41.00988 37009 ft 493 kts 124°
2026-04-30 18:00 4.37659 41.23482 36997 ft 492 kts 124°
2026-04-30 18:01 4.27905 41.37562 36985 ft 493 kts 124°
2026-04-30 18:02 4.16191 41.54462 36973 ft 493 kts 124°
2026-04-30 18:04 4.04470 41.71359 36962 ft 493 kts 124°
2026-04-30 18:06 3.89483 41.94395 36958 ft 494 kts 118°
2026-04-30 18:08 3.77769 42.15373 36954 ft 494 kts 119°
2026-04-30 18:10 3.64348 42.39258 36954 ft 492 kts 119°
2026-04-30 18:11 3.52628 42.60103 36957 ft 492 kts 119°
2026-04-30 18:13 3.44263 42.74974 36967 ft 491 kts 118°
2026-04-30 18:14 3.35871 42.89884 36973 ft 492 kts 118°
2026-04-30 18:15 3.25811 43.07749 36985 ft 493 kts 118°
2026-04-30 18:16 3.19097 43.19668 36990 ft 493 kts 118°
2026-04-30 18:17 3.15737 43.25630 36993 ft 493 kts 118°
2026-04-30 18:18 3.10683 43.34597 36996 ft 493 kts 118°
2026-04-30 18:18 3.07317 43.40568 36996 ft 493 kts 118°
2026-04-30 18:19 3.03933 43.46571 36997 ft 494 kts 118°
2026-04-30 18:19 3.00589 43.52502 36992 ft 494 kts 119°
2026-04-30 18:20 2.97232 43.58455 36994 ft 494 kts 119°
2026-04-30 18:20 2.93871 43.64414 36993 ft 494 kts 119°
2026-04-30 18:21 2.90490 43.70406 36990 ft 494 kts 119°
2026-04-30 18:21 2.87101 43.76413 36984 ft 494 kts 119°
2026-04-30 18:22 2.83739 43.82370 36985 ft 494 kts 119°
2026-04-30 18:22 2.78695 43.91307 36978 ft 494 kts 118°
2026-04-30 18:23 2.75310 43.97303 36976 ft 494 kts 118°
2026-04-30 18:23 2.71902 44.03339 36975 ft 494 kts 118°
2026-04-30 18:24 2.66840 44.12303 36972 ft 493 kts 118°
2026-04-30 18:25 2.63487 44.18240 36966 ft 493 kts 118°
2026-04-30 18:25 2.58479 44.27105 36969 ft 492 kts 118°
2026-04-30 18:26 2.53458 44.35991 36969 ft 490 kts 118°
2026-04-30 18:27 2.48399 44.44944 36966 ft 490 kts 118°
2026-04-30 18:28 2.43394 44.53798 36965 ft 490 kts 118°
2026-04-30 18:28 2.38358 44.62705 36963 ft 490 kts 118°
2026-04-30 18:29 2.31666 44.74540 36965 ft 490 kts 118°
2026-04-30 18:30 2.24978 44.86364 36962 ft 490 kts 118°
2026-04-30 18:31 2.19943 44.95264 36962 ft 489 kts 118°
2026-04-30 18:32 2.14926 45.04130 36960 ft 489 kts 118°
2026-04-30 18:33 2.09907 45.12999 36960 ft 489 kts 118°
2026-04-30 18:33 2.04904 45.21839 36960 ft 488 kts 118°
2026-04-30 18:34 1.99921 45.30640 36958 ft 487 kts 118°
2026-04-30 18:35 1.96458 45.36523 36956 ft 486 kts 120°
2026-04-30 18:35 1.92979 45.42266 36952 ft 485 kts 120°
2026-04-30 18:36 1.87791 45.50941 36951 ft 484 kts 119°
2026-04-30 18:37 1.82625 45.59624 36951 ft 484 kts 119°
2026-04-30 18:37 1.79196 45.65382 36948 ft 483 kts 119°
2026-04-30 18:38 1.75784 45.71110 36953 ft 483 kts 119°
2026-04-30 18:38 1.72354 45.76868 36952 ft 483 kts 119°
2026-04-30 18:39 1.68904 45.82659 36949 ft 483 kts 119°
2026-04-30 18:39 1.65500 45.88372 36950 ft 483 kts 119°
2026-04-30 18:40 1.62006 45.94237 36952 ft 483 kts 119°
2026-04-30 18:40 1.58613 45.99931 36950 ft 483 kts 119°
2026-04-30 18:41 1.55184 46.05685 36951 ft 483 kts 119°
2026-04-30 18:41 1.51738 46.11467 36950 ft 482 kts 119°
2026-04-30 18:42 1.48315 46.17209 36949 ft 482 kts 119°
2026-04-30 18:42 1.43184 46.25816 36946 ft 482 kts 119°
2026-04-30 18:45 1.24399 46.57322 36948 ft 480 kts 119°
2026-04-30 18:46 1.20989 46.63040 36947 ft 480 kts 119°
2026-04-30 18:46 1.17589 46.68740 36947 ft 480 kts 119°
2026-04-30 18:47 1.14168 46.74477 36946 ft 480 kts 119°
2026-04-30 18:47 1.10770 46.80173 36947 ft 480 kts 119°
2026-04-30 18:48 1.07380 46.85857 36946 ft 480 kts 119°
2026-04-30 18:48 1.03932 46.91636 36948 ft 479 kts 119°
2026-04-30 18:49 1.00539 46.97324 36944 ft 479 kts 119°
2026-04-30 18:49 0.97109 47.03074 36948 ft 479 kts 119°
2026-04-30 18:50 0.93703 47.08781 36943 ft 480 kts 119°
2026-04-30 18:50 0.90297 47.14491 36943 ft 480 kts 119°
2026-04-30 18:51 0.86882 47.20213 36945 ft 480 kts 119°
2026-04-30 18:51 0.83495 47.25891 36946 ft 480 kts 119°
2026-04-30 18:52 0.80073 47.31625 36946 ft 480 kts 119°
2026-04-30 18:52 0.76664 47.37338 36944 ft 480 kts 119°
2026-04-30 18:53 0.73241 47.43076 36943 ft 480 kts 119°
2026-04-30 18:53 0.69790 47.48727 36944 ft 480 kts 120°
2026-04-30 18:54 0.66275 47.54428 36943 ft 480 kts 120°
2026-04-30 18:54 0.62804 47.60096 36943 ft 480 kts 120°
2026-04-30 18:55 0.59329 47.65788 36947 ft 480 kts 120°
2026-04-30 18:55 0.54120 47.74319 36945 ft 480 kts 120°
2026-04-30 18:56 0.48934 47.82809 36945 ft 480 kts 120°
2026-04-30 18:57 0.43702 47.91373 36944 ft 480 kts 120°
2026-04-30 18:57 0.40253 47.97020 36943 ft 480 kts 120°
2026-04-30 18:58 0.35006 48.05610 36944 ft 481 kts 120°
2026-04-30 18:59 0.29803 48.14127 36945 ft 481 kts 120°
2026-04-30 19:00 0.22832 48.25537 36947 ft 481 kts 120°
2026-04-30 19:01 0.15864 48.36962 36943 ft 482 kts 120°
2026-04-30 19:02 0.10609 48.45551 36944 ft 482 kts 120°
2026-04-30 19:03 0.03637 48.56957 36942 ft 483 kts 120°
2026-04-30 19:04 -0.03352 48.68398 36944 ft 483 kts 120°
2026-04-30 19:05 -0.10343 48.79841 36938 ft 484 kts 120°
2026-04-30 19:06 -0.17360 48.91328 36941 ft 484 kts 120°
2026-04-30 19:06 -0.22609 48.99921 36938 ft 484 kts 120°
2026-04-30 19:07 -0.27874 49.08538 36937 ft 485 kts 120°
2026-04-30 19:08 -0.34883 49.20011 36938 ft 484 kts 120°
2026-04-30 19:09 -0.40122 49.28588 36934 ft 483 kts 120°
2026-04-30 19:09 -0.43622 49.34317 36936 ft 483 kts 119°
2026-04-30 19:10 -0.50613 49.45764 36942 ft 481 kts 119°
2026-04-30 19:11 -0.55821 49.54290 36940 ft 481 kts 119°
2026-04-30 19:12 -0.59293 49.59974 36937 ft 481 kts 119°
2026-04-30 19:12 -0.62776 49.65677 36937 ft 480 kts 119°
2026-04-30 19:13 -0.69721 49.77049 36940 ft 480 kts 119°
2026-04-30 19:14 -0.73196 49.82740 36936 ft 480 kts 119°
2026-04-30 19:14 -0.76606 49.88324 36937 ft 480 kts 119°
2026-04-30 19:15 -0.80067 49.93991 37073 ft 479 kts 119°
2026-04-30 19:15 -0.83523 49.99649 37627 ft 476 kts 119°
2026-04-30 19:15 -0.85268 50.02506 37886 ft 474 kts 119°
2026-04-30 19:16 -0.86964 50.05284 38097 ft 473 kts 119°
2026-04-30 19:16 -0.88666 50.08072 38314 ft 473 kts 119°
2026-04-30 19:16 -0.92083 50.13669 38727 ft 471 kts 119°
2026-04-30 19:17 -0.93784 50.16455 38884 ft 470 kts 119°
2026-04-30 19:17 -0.98901 50.24840 38929 ft 473 kts 119°
2026-04-30 19:18 -1.04024 50.33232 38930 ft 471 kts 119°
2026-04-30 19:19 -1.07435 50.38820 38950 ft 470 kts 119°
2026-04-30 19:19 -1.11848 50.46051 38928 ft 470 kts 119°
2026-04-30 19:20 -1.13964 50.49517 38949 ft 469 kts 119°
2026-04-30 19:21 -1.19061 50.57868 38950 ft 468 kts 118°
2026-04-30 19:22 -1.25856 50.69004 38932 ft 469 kts 119°
2026-04-30 19:23 -1.36024 50.85670 38949 ft 471 kts 119°
2026-04-30 19:24 -1.41145 50.94064 38929 ft 473 kts 119°
2026-04-30 19:25 -1.49717 51.08132 38943 ft 475 kts 119°
2026-04-30 19:26 -1.56584 51.19372 38945 ft 474 kts 118°
2026-04-30 19:27 -1.61716 51.27789 38938 ft 473 kts 118°
2026-04-30 19:28 -1.66819 51.36158 38926 ft 473 kts 118°
2026-04-30 19:29 -1.73674 51.47404 38929 ft 473 kts 119°
2026-04-30 19:30 -1.80500 51.58601 38930 ft 474 kts 119°
2026-04-30 19:31 -1.87371 51.69875 38925 ft 475 kts 119°
2026-04-30 19:31 -1.92508 51.78304 38932 ft 475 kts 119°
2026-04-30 19:32 -1.95961 51.83972 38926 ft 476 kts 119°
2026-04-30 19:32 -1.99389 51.89598 38928 ft 476 kts 119°
2026-04-30 19:33 -2.02827 51.95243 38928 ft 477 kts 119°
2026-04-30 19:33 -2.06272 52.00897 38929 ft 477 kts 118°
2026-04-30 19:34 -2.09714 52.06548 38929 ft 477 kts 118°
2026-04-30 19:35 -2.14887 52.15042 38925 ft 478 kts 118°
2026-04-30 19:35 -2.18343 52.20718 38924 ft 478 kts 118°
2026-04-30 19:36 -2.21799 52.26395 38940 ft 478 kts 118°
2026-04-30 19:36 -2.26987 52.34917 38938 ft 478 kts 118°
2026-04-30 19:37 -2.30422 52.40561 38923 ft 479 kts 118°
2026-04-30 19:37 -2.33879 52.46241 38925 ft 479 kts 118°
2026-04-30 19:38 -2.37340 52.51929 38938 ft 479 kts 118°
2026-04-30 19:38 -2.40812 52.57634 38921 ft 479 kts 118°
2026-04-30 19:39 -2.44259 52.63300 38922 ft 479 kts 118°
2026-04-30 19:39 -2.47708 52.68971 38942 ft 479 kts 118°
2026-04-30 19:40 -2.51170 52.74661 38924 ft 479 kts 118°
2026-04-30 19:40 -2.54639 52.80365 38920 ft 479 kts 118°
2026-04-30 19:41 -2.58079 52.86023 38940 ft 478 kts 118°
2026-04-30 19:41 -2.61552 52.91683 38919 ft 478 kts 118°
2026-04-30 19:42 -2.65032 52.97331 38921 ft 478 kts 118°
2026-04-30 19:42 -2.68516 53.02998 38933 ft 478 kts 118°
2026-04-30 19:43 -2.72003 53.08672 38922 ft 477 kts 118°
2026-04-30 19:44 -2.77185 53.17106 38917 ft 477 kts 118°
2026-04-30 19:44 -2.80664 53.22770 38914 ft 477 kts 118°
2026-04-30 19:45 -2.84129 53.28413 38930 ft 476 kts 118°
2026-04-30 19:45 -2.87602 53.34069 38933 ft 476 kts 119°
2026-04-30 19:46 -2.91061 53.39704 38914 ft 475 kts 119°
2026-04-30 19:46 -2.94498 53.45302 38915 ft 475 kts 119°
2026-04-30 19:47 -2.97943 53.50914 38930 ft 475 kts 119°
2026-04-30 19:47 -3.01384 53.56522 38930 ft 474 kts 119°
2026-04-30 19:48 -3.04831 53.62140 38913 ft 474 kts 119°
2026-04-30 19:48 -3.08077 53.67430 38931 ft 474 kts 119°
2026-04-30 19:49 -3.11526 53.73053 38917 ft 474 kts 119°
2026-04-30 19:49 -3.16582 53.81298 38914 ft 474 kts 119°
2026-04-30 19:50 -3.20014 53.86893 38918 ft 474 kts 119°
2026-04-30 19:50 -3.23479 53.92545 38933 ft 474 kts 119°
2026-04-30 19:51 -3.26927 53.98171 38917 ft 474 kts 119°
2026-04-30 19:51 -3.30375 54.03796 38919 ft 474 kts 119°
2026-04-30 19:52 -3.33816 54.09412 38936 ft 474 kts 119°
2026-04-30 19:52 -3.37275 54.15056 38927 ft 474 kts 119°
2026-04-30 19:53 -3.40716 54.20674 38914 ft 474 kts 119°
2026-04-30 19:53 -3.44157 54.26291 38927 ft 474 kts 119°
2026-04-30 19:54 -3.47613 54.31935 38934 ft 474 kts 119°
2026-04-30 19:54 -3.50474 54.36608 38934 ft 474 kts 119°
2026-04-30 19:55 -3.53911 54.42223 38931 ft 474 kts 119°
2026-04-30 19:55 -3.55637 54.45042 38829 ft 475 kts 119°
2026-04-30 19:55 -3.57352 54.47845 38610 ft 474 kts 119°
2026-04-30 19:56 -3.59072 54.50654 38356 ft 473 kts 119°
2026-04-30 19:56 -3.60791 54.53465 38083 ft 473 kts 119°
2026-04-30 19:56 -3.62499 54.56256 37827 ft 474 kts 119°
2026-04-30 19:56 -3.64241 54.59104 37568 ft 475 kts 119°
2026-04-30 19:57 -3.65962 54.61917 37316 ft 476 kts 119°
2026-04-30 19:57 -3.67692 54.64746 36812 ft 479 kts 119°
2026-04-30 19:57 -3.69385 54.67514 36219 ft 481 kts 119°
2026-04-30 19:57 -3.71172 54.70437 35614 ft 483 kts 120°
2026-04-30 19:58 -3.72929 54.73310 35032 ft 484 kts 120°
2026-04-30 19:58 -3.74694 54.76195 34466 ft 486 kts 120°
2026-04-30 19:58 -3.76478 54.79113 33889 ft 487 kts 120°
2026-04-30 19:58 -3.78241 54.81996 33274 ft 489 kts 120°
2026-04-30 19:59 -3.80005 54.84881 32651 ft 491 kts 120°
2026-04-30 19:59 -3.81812 54.87837 32038 ft 493 kts 120°
2026-04-30 19:59 -3.85402 54.93711 30867 ft 497 kts 121°
2026-04-30 20:00 -3.87224 54.96692 30289 ft 500 kts 121°
2026-04-30 20:00 -3.88996 54.99593 29628 ft 502 kts 121°
2026-04-30 20:00 -3.90754 55.02470 28765 ft 506 kts 121°
2026-04-30 20:00 -3.92623 55.05527 27828 ft 506 kts 121°
2026-04-30 20:01 -3.96177 55.11344 26115 ft 479 kts 121°
2026-04-30 20:01 -3.97910 55.14181 25291 ft 476 kts 121°
2026-04-30 20:01 -3.99636 55.17008 24477 ft 474 kts 121°
2026-04-30 20:02 -4.03038 55.22579 22821 ft 467 kts 121°
2026-04-30 20:02 -4.04745 55.25377 21899 ft 454 kts 121°
2026-04-30 20:03 -4.08012 55.30733 20183 ft 455 kts 121°
2026-04-30 20:03 -4.09646 55.33412 19387 ft 442 kts 122°
2026-04-30 20:03 -4.11235 55.36016 18570 ft 422 kts 122°
2026-04-30 20:03 -4.12734 55.38473 17729 ft 406 kts 122°
2026-04-30 20:04 -4.14162 55.40813 16850 ft 391 kts 122°
2026-04-30 20:04 -4.15568 55.43117 16221 ft 372 kts 122°
2026-04-30 20:04 -4.16856 55.45230 15967 ft 347 kts 122°
2026-04-30 20:05 -4.18387 55.49361 15833 ft 298 kts 88°
2026-04-30 20:05 -4.17796 55.51286 15717 ft 297 kts 58°
2026-04-30 20:05 -4.14448 55.53593 15474 ft 303 kts 11°
2026-04-30 20:06 -4.12353 55.53577 15368 ft 305 kts 346°
2026-04-30 20:06 -4.10461 55.52671 15231 ft 304 kts 320°
2026-04-30 20:06 -4.09128 55.51082 15143 ft 305 kts 300°
2026-04-30 20:06 -4.08042 55.49243 14904 ft 307 kts 301°
2026-04-30 20:07 -4.06904 55.47448 14637 ft 305 kts 302°
2026-04-30 20:07 -4.05779 55.45625 14362 ft 302 kts 300°
2026-04-30 20:07 -4.04939 55.41732 13943 ft 289 kts 253°
2026-04-30 20:08 -4.05766 55.39961 13925 ft 286 kts 232°
2026-04-30 20:08 -4.07188 55.38590 13921 ft 286 kts 211°
2026-04-30 20:08 -4.09043 55.37841 13920 ft 284 kts 188°
2026-04-30 20:08 -4.10993 55.37919 13921 ft 282 kts 164°
2026-04-30 20:09 -4.12736 55.38796 13917 ft 282 kts 140°
2026-04-30 20:09 -4.13981 55.40276 13925 ft 283 kts 121°
2026-04-30 20:09 -4.15972 55.43711 13918 ft 285 kts 121°
2026-04-30 20:10 -4.17910 55.47160 13912 ft 286 kts 111°
2026-04-30 20:10 -4.18213 55.49123 13923 ft 287 kts 86°
2026-04-30 20:10 -4.17609 55.51047 13921 ft 289 kts 60°
2026-04-30 20:11 -4.14358 55.53225 13923 ft 295 kts
2026-04-30 20:11 -4.12322 55.53076 13919 ft 296 kts 342°
2026-04-30 20:11 -4.10551 55.52066 13920 ft 296 kts 316°
2026-04-30 20:12 -4.08282 55.48643 13918 ft 297 kts 300°
2026-04-30 20:12 -4.07198 55.46867 13920 ft 298 kts 301°
2026-04-30 20:12 -4.06090 55.45114 13918 ft 298 kts 301°
2026-04-30 20:13 -4.05260 55.43236 13914 ft 296 kts 280°
2026-04-30 20:13 -4.05317 55.41219 13919 ft 290 kts 252°
2026-04-30 20:13 -4.06259 55.39452 13919 ft 286 kts 227°
2026-04-30 20:13 -4.07803 55.38258 13918 ft 284 kts 204°
2026-04-30 20:14 -4.09723 55.37785 13923 ft 283 kts 180°
2026-04-30 20:14 -4.11629 55.38140 13916 ft 282 kts 156°
2026-04-30 20:14 -4.13237 55.39267 13921 ft 283 kts 132°
2026-04-30 20:14 -4.14347 55.40888 13923 ft 284 kts 120°
2026-04-30 20:15 -4.15335 55.42609 13917 ft 285 kts 121°
2026-04-30 20:15 -4.16339 55.44315 13917 ft 285 kts 121°
2026-04-30 20:15 -4.17344 55.46012 13924 ft 285 kts 121°
2026-04-30 20:15 -4.18130 55.47826 13916 ft 287 kts 103°
2026-04-30 20:16 -4.18117 55.49813 13922 ft 288 kts 76°
2026-04-30 20:16 -4.17214 55.51615 13916 ft 290 kts 51°
2026-04-30 20:16 -4.15638 55.52835 13917 ft 293 kts 25°
2026-04-30 20:16 -4.13630 55.53277 13919 ft 296 kts 359°
2026-04-30 20:17 -4.11664 55.52823 13918 ft 296 kts 333°
2026-04-30 20:17 -4.10054 55.51533 13920 ft 295 kts 307°
2026-04-30 20:17 -4.08950 55.49798 13918 ft 296 kts 298°
2026-04-30 20:17 -4.07914 55.48028 13919 ft 297 kts 300°
2026-04-30 20:18 -4.06828 55.46280 13919 ft 298 kts 301°
2026-04-30 20:18 -4.05743 55.44505 13914 ft 297 kts 297°
2026-04-30 20:18 -4.05167 55.42523 13920 ft 294 kts 269°
2026-04-30 20:18 -4.05549 55.40580 13916 ft 289 kts 243°
2026-04-30 20:19 -4.06731 55.38974 13919 ft 286 kts 219°
2026-04-30 20:19 -4.08428 55.38007 13915 ft 284 kts 196°
2026-04-30 20:19 -4.10386 55.37813 13916 ft 283 kts 172°
2026-04-30 20:19 -4.12220 55.38439 13918 ft 282 kts 148°
2026-04-30 20:20 -4.12798 55.38850 13924 ft 283 kts 139°
2026-04-30 20:20 -4.13645 55.39771 13919 ft 283 kts 125°
2026-04-30 20:20 -4.14671 55.41489 13917 ft 285 kts 120°
2026-04-30 20:20 -4.15667 55.43214 13917 ft 285 kts 121°
2026-04-30 20:21 -4.16684 55.44917 13918 ft 286 kts 122°
2026-04-30 20:21 -4.17674 55.46636 13911 ft 286 kts 117°
2026-04-30 20:21 -4.18213 55.48524 13915 ft 287 kts 94°
2026-04-30 20:21 -4.17891 55.50471 13916 ft 289 kts 68°
2026-04-30 20:22 -4.16741 55.52106 13914 ft 291 kts 42°
2026-04-30 20:22 -4.14977 55.53090 13916 ft 294 kts 16°
2026-04-30 20:22 -4.12949 55.53221 13915 ft 296 kts 350°
2026-04-30 20:22 -4.11046 55.52455 13920 ft 296 kts 323°
2026-04-30 20:23 -4.09657 55.50963 13931 ft 295 kts 301°
2026-04-30 20:23 -4.08635 55.49207 13917 ft 296 kts 299°
2026-04-30 20:23 -4.07545 55.47401 13917 ft 298 kts 301°
2026-04-30 20:23 -4.06461 55.45692 13920 ft 298 kts 302°
2026-04-30 20:24 -4.05438 55.43880 13908 ft 297 kts 290°
2026-04-30 20:24 -4.05172 55.41855 13922 ft 292 kts 260°
2026-04-30 20:24 -4.05858 55.39987 13917 ft 287 kts 234°
2026-04-30 20:24 -4.07247 55.38574 13918 ft 285 kts 211°
2026-04-30 20:25 -4.11018 55.37931 13917 ft 282 kts 164°
2026-04-30 20:25 -4.12759 55.38816 13916 ft 283 kts 140°
2026-04-30 20:26 -4.14990 55.42014 13917 ft 285 kts 121°
2026-04-30 20:26 -4.17002 55.45434 13916 ft 286 kts 122°
2026-04-30 20:26 -4.17934 55.47189 13912 ft 286 kts 112°
2026-04-30 20:27 -4.17623 55.51029 13915 ft 289 kts 60°
2026-04-30 20:27 -4.14336 55.53228 13916 ft 295 kts
2026-04-30 20:28 -4.10551 55.52065 13915 ft 296 kts 316°
2026-04-30 20:28 -4.08298 55.48660 13913 ft 297 kts 300°
2026-04-30 20:29 -4.06112 55.45146 13912 ft 298 kts 301°
2026-04-30 20:30 -4.06224 55.39497 13917 ft 286 kts 227°
2026-04-30 20:30 -4.11594 55.38117 13845 ft 283 kts 157°
2026-04-30 20:31 -4.15412 55.42697 11916 ft 313 kts 121°
2026-04-30 20:32 -4.18504 55.48991 8957 ft 359 kts 99°
2026-04-30 20:32 -4.17625 55.53950 7144 ft 375 kts 63°
2026-04-30 20:33 -4.16063 55.56044 6398 ft 376 kts 44°
2026-04-30 20:33 -4.11381 55.57890 5473 ft 360 kts 358°
2026-04-30 20:33 -4.09118 55.57365 5415 ft 341 kts 334°
2026-04-30 20:34 -4.06423 55.54080 5378 ft 299 kts 279°
2026-04-30 20:34 -4.07220 55.50291 5488 ft 276 kts 253°
2026-04-30 20:35 -4.07305 55.48370 5512 ft 279 kts 277°
2026-04-30 20:35 -4.06891 55.46464 5498 ft 281 kts 286°
2026-04-30 20:35 -4.05777 55.42726 5497 ft 281 kts 272°
2026-04-30 20:36 -4.06054 55.40817 5501 ft 278 kts 248°
2026-04-30 20:36 -4.07096 55.39209 5501 ft 275 kts 223°
2026-04-30 20:36 -4.10535 55.37964 5501 ft 272 kts 174°
2026-04-30 20:37 -4.12298 55.38521 5501 ft 272 kts 149°
2026-04-30 20:37 -4.13690 55.39816 5505 ft 272 kts 124°
2026-04-30 20:37 -4.14651 55.41443 5499 ft 273 kts 120°
2026-04-30 20:37 -4.15603 55.43097 5497 ft 274 kts 121°
2026-04-30 20:38 -4.16574 55.44726 5500 ft 273 kts 121°
2026-04-30 20:38 -4.17537 55.46364 5499 ft 273 kts 119°
2026-04-30 20:38 -4.18149 55.48163 5504 ft 274 kts 97°
2026-04-30 20:39 -4.16813 55.51607 5503 ft 278 kts 42°
2026-04-30 20:39 -4.15171 55.52523 5501 ft 280 kts 16°
2026-04-30 20:39 -4.13218 55.52630 5498 ft 281 kts 349°
2026-04-30 20:40 -4.10196 55.50395 5508 ft 280 kts 300°
2026-04-30 20:40 -4.09222 55.48678 5495 ft 281 kts 299°
2026-04-30 20:40 -4.08217 55.46995 5499 ft 282 kts 301°
2026-04-30 20:41 -4.06239 55.43614 5479 ft 282 kts 290°
2026-04-30 20:41 -4.05965 55.41680 5501 ft 279 kts 262°
2026-04-30 20:41 -4.06624 55.39887 5501 ft 275 kts 234°
2026-04-30 20:41 -4.07966 55.38595 5500 ft 273 kts 210°
2026-04-30 20:42 -4.09747 55.37991 5500 ft 272 kts 185°
2026-04-30 20:42 -4.11610 55.38213 5499 ft 271 kts 159°
2026-04-30 20:42 -4.14270 55.40763 5499 ft 272 kts 119°
2026-04-30 20:43 -4.15199 55.42409 5498 ft 273 kts 121°
2026-04-30 20:43 -4.16161 55.44037 5496 ft 273 kts 121°
2026-04-30 20:43 -4.17143 55.45681 5498 ft 273 kts 121°
2026-04-30 20:44 -4.18130 55.49242 5506 ft 275 kts 81°
2026-04-30 20:44 -4.17371 55.51002 5504 ft 277 kts 53°
2026-04-30 20:44 -4.14042 55.52699 5496 ft 281 kts
2026-04-30 20:45 -4.10647 55.51050 5501 ft 281 kts 306°
2026-04-30 20:45 -4.09653 55.49377 5498 ft 281 kts 297°
2026-04-30 20:45 -4.08686 55.47705 5495 ft 282 kts 301°
2026-04-30 20:46 -4.05952 55.42522 5499 ft 281 kts 274°
2026-04-30 20:46 -4.06236 55.40607 5504 ft 277 kts 245°
2026-04-30 20:47 -4.08983 55.38142 5498 ft 272 kts 195°
2026-04-30 20:47 -4.10851 55.38019 5497 ft 271 kts 170°
2026-04-30 20:48 -4.13872 55.40087 5506 ft 272 kts 122°
2026-04-30 20:48 -4.14813 55.41708 5495 ft 273 kts 120°
2026-04-30 20:48 -4.15765 55.43357 5498 ft 273 kts 121°
2026-04-30 20:48 -4.16729 55.44981 5496 ft 273 kts 121°
2026-04-30 20:49 -4.17786 55.46561 5477 ft 273 kts 133°
2026-04-30 20:49 -4.19390 55.47536 5504 ft 271 kts 166°
2026-04-30 20:49 -4.21247 55.47497 5514 ft 271 kts 194°
2026-04-30 20:50 -4.24940 55.46691 5451 ft 273 kts 185°
2026-04-30 20:50 -4.26809 55.46538 5314 ft 274 kts 183°
2026-04-30 20:50 -4.28710 55.46446 5083 ft 272 kts 181°
2026-04-30 20:50 -4.30600 55.46394 4924 ft 271 kts 180°
2026-04-30 20:51 -4.32838 55.46360 4791 ft 270 kts 180°
2026-04-30 20:51 -4.34718 55.46344 4673 ft 270 kts 179°
2026-04-30 20:52 -4.36594 55.46334 4551 ft 269 kts 179°
2026-04-30 20:52 -4.38449 55.46328 4509 ft 267 kts 179°
2026-04-30 20:52 -4.41959 55.46320 4497 ft 237 kts 179°
2026-04-30 20:53 -4.43554 55.46322 4417 ft 226 kts 179°
2026-04-30 20:53 -4.45101 55.46325 4226 ft 219 kts 179°
2026-04-30 20:53 -4.46601 55.46321 4071 ft 212 kts 179°
2026-04-30 20:54 -4.49448 55.46318 3734 ft 197 kts 179°
2026-04-30 20:54 -4.50790 55.46318 3470 ft 195 kts 179°
2026-04-30 20:54 -4.52149 55.46318 3096 ft 191 kts 179°
2026-04-30 20:55 -4.54706 55.46336 2501 ft 179 kts 178°
2026-04-30 20:55 -4.55915 55.46345 2301 ft 167 kts 178°
2026-04-30 20:55 -4.57020 55.46354 2191 ft 151 kts 177°
2026-04-30 20:56 -4.59120 55.46376 2238 ft 157 kts 178°
2026-04-30 20:56 -4.60263 55.46387 1764 ft 175 kts 175°
2026-04-30 20:56 -4.62624 55.47058 954 ft 170 kts 156°
2026-04-30 20:57 -4.63637 55.47628 725 ft 159 kts 144°
2026-04-30 20:57 -4.64470 55.48266 558 ft 148 kts 140°
2026-04-30 20:57 -4.65143 55.49009 467 ft 145 kts 129°
2026-04-30 20:58 -4.66363 55.50688 113 ft 149 kts 124°
2026-04-30 20:58 -4.66956 55.51527 44 ft 147 kts 127°
2026-04-30 20:58 -4.67447 55.52230 35 ft 131 kts 129°
2026-04-30 20:58 -4.67831 55.52755 27 ft 54 kts 124°
2026-04-30 20:59 -4.68043 55.53059 30 ft 11 kts 123°
2026-04-30 20:59 -4.68065 55.53092 30 ft 4 kts 124°
2026-04-30 21:00 -4.68149 55.53213 29 ft 13 kts 128°
2026-04-30 21:00 -4.68254 55.53232 31 ft 9 kts 241°
2026-04-30 21:01 -4.68142 55.53154 30 ft 16 kts 340°
2026-04-30 21:01 -4.68050 55.53071 30 ft 20 kts 304°
2026-04-30 21:01 -4.67840 55.52774 27 ft 31 kts 306°
2026-04-30 21:02 -4.67705 55.52588 28 ft 35 kts 306°
2026-04-30 21:02 -4.67568 55.52382 25 ft 36 kts 304°
2026-04-30 21:02 -4.67423 55.52173 31 ft 37 kts 306°
2026-04-30 21:02 -4.67267 55.51951 30 ft 40 kts 306°
2026-04-30 21:03 -4.67115 55.51735 28 ft 37 kts 305°
2026-04-30 21:03 -4.66968 55.51525 29 ft 38 kts 304°
2026-04-30 21:03 -4.66897 55.51404 30 ft 0 kts 274°
2026-04-30 21:04 -4.66933 55.51353 29 ft 24 kts 219°
2026-04-30 21:04 -4.66990 55.51299 28 ft 12 kts 243°
2026-04-30 21:04 -4.66958 55.51210 30 ft 0 kts 304°
2026-04-30 21:05 -4.66983 55.51148 31 ft 25 kts 228°
2026-04-30 21:05 -4.67029 55.51125 31 ft 0 kts 197°
2026-04-30 21:06 -4.67072 55.51269 27 ft 0 kts 214°